This demonstration page uses our WeatherBlox Daily Observations layout. Learn more.

38.88101, -77.10428

Hourly Observations for March 1, 2016

Temp ( °F °C ) Dew Point ( °F °C ) Humidity (%) Winds ( mph kmh ) Pressure ( in mb ) Visibility ( mi km ) Precip ( " mm )
12:52 am 00:52 Clear 44 6.7 36 2.2 73 73 Calm 30.06 1018 10 16.0934 0 0
1:52 am 01:52 Clear 44 6.7 38 3.3 79 79 Calm 30.06 1018 10 16.0934 0 0
2:52 am 02:52 Clear 43 6.1 37 2.8 80 80 N 3 6 30.08 1019 10 16.0934 0 0
3:52 am 03:52 Clear 42 5.6 37 2.8 82 82 Calm 30.09 1019 10 16.0934 0 0
4:52 am 04:52 Clear 42 5.6 34 1.1 73 73 Calm 30.11 1020 10 16.0934 0 0
5:52 am 05:52 Mostly Clear 40 4.4 35 1.7 83 83 Calm 30.11 1020 10 16.0934 0 0
6:52 am 06:52 Mostly Sunny 41 5 34 1.1 76 76 SSW 3 6 30.11 1020 10 16.0934 0 0
7:52 am 07:52 Mostly Sunny 44 6.7 38 3.3 79 79 Calm 30.11 1020 10 16.0934 0 0
8:52 am 08:52 Mostly Sunny 49 9.4 35 1.7 59 59 SSW 6 9 30.14 1021 10 16.0934 0 0
9:52 am 09:52 Mostly Sunny 55 12.8 32 0 42 42 S 6 9 30.12 1020 10 16.0934 0 0
10:52 am 10:52 Mostly Sunny 61 16.1 32 0 34 34 S 13 20 30.1 1019 10 16.0934 0 0
11:52 am 11:52 Mostly Sunny 63 17.2 31 -0.6 30 30 S 17 28 30.05 1018 10 16.0934 0 0
12:52 pm 12:52 Partly Cloudy 63 17.2 34 1.1 34 34 S 13 20 30 1016 10 16.0934 0 0
1:52 pm 13:52 Partly Cloudy 64 17.8 32 0 30 30 SSE 14 22 29.95 1014 10 16.0934 0 0
2:52 pm 14:52 Mostly Cloudy 65 18.3 34 1.1 32 32 SSE 15 24 29.91 1013 10 16.0934 0 0
3:52 pm 15:52 Mostly Cloudy 61 16.1 33 0.6 35 35 SE 14 22 29.88 1012 10 16.0934 0 0
4:52 pm 16:52 Mostly Cloudy 60 15.6 34 1.1 38 38 SSE 15 24 29.84 1011 10 16.0934 0 0
5:52 pm 17:52 Mostly Cloudy 58 14.4 39 3.9 50 50 SSE 9 15 29.8 1009 10 16.0934 0 0
6:52 pm 18:52 Clear 55 13 32 0 41 41 N 5 7 29.97 1015 10 16.0934 0 0
7:52 pm 19:52 Mostly Cloudy 56 13.3 45 7.2 67 67 S 12 19 29.71 1006 10 16.0934 0 0
8:52 pm 20:52 Mostly Cloudy 57 13.9 45 7.2 64 64 S 14 22 29.66 1004 10 16.0934 0 0
9:52 pm 21:52 Mostly Cloudy 58 14.4 45 7.2 62 62 S 18 30 29.6 1003 10 16.0934 0 0
10:52 pm 22:52 Cloudy 61 16.1 45 7.2 56 56 S 17 28 29.59 1002 10 16.0934 0 0
11:52 pm 23:52 Cloudy with Light Rain 59 15 48 8.9 67 67 SSW 15 24 29.56 1001 10 16.0934 0 0.0254

Powered by AerisWeather